1998-067WE

Last updated on Thu Dec 21 2023 00:02:06 GMT+0000 (Coordinated Universal Time)

1 58613U 98067WE 23353.44724344 .00043018 00000+0 72629-3 0 9995 2 58613 51.6358 130.8840 0004895 355.7748 105.0601 15.51184337 216
UTC large
Height (km)
Speed (km/s)
/
Latitude / Longitude
Inclination (degrees)
Orbital Period (minutes)
Azimuth
Elevation
Range (km)
Doppler Factor

Next 0 passes for location: London (51.5072 / 0.1276)

Sorry there are no passes over London.